User: anonymous   Login
Location: Cahas Mountain Overlook
(37.0833°N, 80.1000°W)
Time: 06:14:46
(UTC-04:00)
Language:

CUTE 1.7 + AOD 2 - Orbit

View from above orbital plane
View from above orbital plane
View from above satellite
View from above satellite

Ground track
Ground track

The orbit data is extracted from the following two-line orbital elements,

1 32785U 08021C   24111.17368616  .00012592  00000-0  11295-2 0  9992
2 32785  97.7492  77.0397 0012270 151.2360 208.9540 14.95836353866878
Epoch (UTC): 20 April 2024 04:10:06
Eccentricity: 0.0012270
inclination: 97.7492°
perigee height: 571 km
apogee height: 588 km
right ascension of ascending node: 77.0397°
argument of perigee: 151.2360°
revolutions per day: 14.95836353
mean anomaly at epoch: 208.9540°
orbit number at epoch: 86687

The dashed part of the orbit path shows where the satellite is in the earth's shadow,  

DLR